This demonstration page uses our WeatherBlox Daily Observations layout. Learn more.

Left ArrowRight Arrow

Hourly Observations for July 6, 2022

Temp ( °F °C ) Dew Point ( °F °C ) Humidity (%) Winds ( mph kmh ) Pressure ( in mb ) Visibility ( mi km ) Precip ( " mm )
12:52 am 00:52 Clear 79 26.1 67 19.4 67 67 S 6 9 29.89 1012 10 16 0.00 0.00
1:52 am 01:52 Clear 78 25.6 67 19.4 69 69 S 9 15 29.88 1012 10 16 0.00 0.00
2:52 am 02:52 Clear 79 26.1 67 19.4 67 67 SSW 8 13 29.88 1012 10 16 0.00 0.00
3:52 am 03:52 Clear 77 25 67 19.4 71 71 SSW 8 13 29.88 1012 10 16 0.00 0.00
4:52 am 04:52 Clear 77 25 67 19.4 71 71 S 6 9 29.88 1012 10 16 0.00 0.00
5:52 am 05:52 Clear 75 23.9 68 20 79 79 S 7 11 29.89 1012 10 16 0.00 0.00
6:52 am 06:52 Sunny 75 23.9 69 20.6 82 82 S 9 15 29.92 1013 9 14 0.00 0.00
7:52 am 07:52 Sunny 81 27.2 69 20.6 67 67 SSW 8 13 29.93 1014 10 16 0.00 0.00
8:52 am 08:52 Sunny 85 29.4 69 20.6 59 59 SSW 12 19 29.94 1014 10 16 0.00 0.00
9:52 am 09:52 Sunny 89 31.7 69 20.6 52 52 SW 14 22 29.93 1014 10 16 0.00 0.00
10:52 am 10:52 Sunny 91 32.8 68 20 47 47 WSW 14 22 29.93 1014 10 16 0.00 0.00
11:52 am 11:52 Sunny 93 33.9 68 20 44 44 WSW 13 20 29.93 1014 10 16 0.00 0.00
12:52 pm 12:52 Sunny 95 35 68 20 41 41 SW 8 13 29.93 1014 10 16 0.00 0.00
1:52 pm 13:52 Sunny 95 35 68 20 41 41 SSW 10 17 29.91 1013 10 16 0.00 0.00
2:52 pm 14:52 Sunny 96 35.6 66 18.9 37 37 SW 5 7 29.89 1012 10 16 0.00 0.00
3:52 pm 15:52 Partly Cloudy 97 36.1 67 19.4 37 37 S 10 17 29.87 1012 10 16 0.00 0.00
4:52 pm 16:52 Sunny 98 36.7 65 18.3 34 34 VRB 5 7 29.86 1011 10 16 0.00 0.00
5:52 pm 17:52 Sunny 97 36.1 64 17.8 34 34 S 8 13 29.85 1011 10 16 0.00 0.00
6:52 pm 18:52 Sunny 97 36.1 66 18.9 36 36 S 9 15 29.85 1011 10 16 0.00 0.00
7:52 pm 19:52 Sunny 93 33.9 67 19.4 42 42 S 6 9 29.86 1011 10 16 0.00 0.00
8:52 pm 20:52 Clear 87 30.6 70 21.1 57 57 S 3 6 29.88 1012 10 16 0.00 0.00
9:52 pm 21:52 Clear 85 29.4 70 21.1 61 61 SW 3 6 29.90 1012 10 16 0.00 0.00
10:52 pm 22:52 Clear 87 30.6 68 20 53 53 Calm 29.90 1012 10 16 0.00 0.00
11:52 pm 23:52 Clear 82 27.8 69 20.6 65 65 SSE 8 13 29.88 1012 10 16 0.00 0.00

Powered by AerisWeather